Location: Cheching
(60.0667°N, 164.2167°W)
Time: 01:50:08
(UTC+00:00)

DX 1 - Pass Details

Date: 28 January 2021
Orbit: 618 x 631 km, 98.5° (Epoch: 07 March)

Event Time Altitude Azimuth Distance (km) Brightness Sun altitude
Rises 15:34:39 0° 138° (SE) 2,909 ? -27.4°
Reaches altitude 10° 15:36:55 10° 132° (SE) 2,004 ? -27.1°
Maximum altitude 15:41:01 43° 61° (ENE) 889 ? -26.6°
Enters shadow 15:43:59 18° 357° (N) 1,572 ? -26.2°
